Regional Weather Roundup
Issued by NWS

Home | Current Version | Previous Version | Text Only | Print | Product List | Glossary Off
Versions: 1 2 3 4 5 6 7 8 9 10 11 12 13 14 15 16 17 18 19 20 21 22 23 24 25 26 27 28 29 30 31 32 33 34 35 36 37 38 39 40 41 42 43 44 45 46 47 48 49 50

000
ASUS44 KMEG 220700
RWRTN
TENNESSEE HOURLY STATE WEATHER ROUNDUP
NATIONAL WEATHER SERVICE MEMPHIS TN
200 AM CDT WED MAR 22 2017

TNZ002-004-019-021-049-052-054-088>092-220800-
WEST TENNESSEE

CITY           SKY/WX    TMP DP  RH WIND       PRES   REMARKS
MEMPHIS INTL   NOT AVBL
NWS MEMPHIS      N/A     56 N/A N/A MISG        N/A
JACKSON        CLOUDY    52  45  77 N21G31    30.20R
DYERSBURG      LGT RAIN  48  44  86 NE9       30.22F
PARIS          CLOUDY    46  37  71 N9        30.22R
$$

TNZ008-025-027-028-033-062-065-066-220800-
NORTH MIDDLE TENNESSEE

CITY           SKY/WX    TMP DP  RH WIND       PRES   REMARKS
NASHVILLE      MOCLDY    54  45  71 N7        30.16R
CLARKSVILLE    PTCLDY    50  35  56 N12       30.20R
SMYRNA         PTCLDY    51  48  89 N5        30.17R
CROSSVILLE     PTCLDY    50  40  68 N7        30.14R
$$

TNZ061-075-076-078-094-096-097-220800-
SOUTH MIDDLE TENNESSEE

CITY           SKY/WX    TMP DP  RH WIND       PRES   REMARKS
TULLAHOMA      CLEAR     54  50  87 N7        30.14R
WINCHESTER     CLEAR     54  54 100 NW5       30.12R
MCMINNVILLE    PTCLDY    54  48  82 N7        30.14R
COLUMBIA       MOCLDY    54  54 100 N8        30.13R
SHELBYVILLE    PTCLDY    55  54  94 N5        30.15R
$$

TNZ017-018-042-046-047-220800-
NORTHEAST TENNESSEE

CITY           SKY/WX    TMP DP  RH WIND       PRES   REMARKS
TRI CITIES     PTCLDY    49  39  68 N5        30.07R
$$

TNZ012-013-036-069-073-074-220800-
CENTRAL EAST TENNESSEE

CITY           SKY/WX    TMP DP  RH WIND       PRES   REMARKS
KNOXVILLE      MOCLDY    55  47  74 NW8       30.07R
OAK RIDGE      PTCLDY    56  44  64 N3        30.11R
GATLINBURG     CLOUDY    54  50  87 NE5       30.06R
$$

TNZ083-085-099-220800-
SOUTHEAST TENNESSEE

CITY           SKY/WX    TMP DP  RH WIND       PRES   REMARKS
CHATTANOOGA    CLOUDY    58  51  78 N7        30.08R
$$

SKY/WX REPORTED AS FAIR MEANS FEW OR NO CLOUDS BELOW
12 THOUSAND FEET.





USA.gov is the U.S. government's official web portal to all federal, state and local government web resources and services.